User: anonymous   Login
Location: Ostrava
(49.8330°N, 18.2830°E)
Time: 10:46:40
(UTC+02:00)
Language:

Iridium 7 - Orbit

View from above orbital plane
View from above orbital plane
View from above satellite
View from above satellite

Ground track
Ground track

The orbit data is extracted from the following two-line orbital elements,

1 24793U 97020B   15242.52115564  .00000009  00000-0 -39300-5 0  9996
2 24793 086.3944 233.3867 0002310 088.3607 024.7844 14.34217330959078
Epoch (UTC): 30 August 2015 12:30:27
Eccentricity: 0.0002310
inclination: 86.3944°
perigee height: 776 km
apogee height: 779 km
right ascension of ascending node: 233.3867°
argument of perigee: 88.3607°
revolutions per day: 14.34217330
mean anomaly at epoch: 24.7844°
orbit number at epoch: 95907

The dashed part of the orbit path shows where the satellite is in the earth's shadow,  

DLR